Terminal Aerodrome Forecast
Issued by NWS

Current Version | Previous Version | Graphics & Text | Print | Product List | Glossary On
Versions: 1 2 3 4 5 6 7 8 9 10 11 12 13 14 15 16 17 18 19 20
000
FTUS41 KPBZ 220542
TAFMGW
TAF
KMGW 220542Z 2206/2306 17003KT P6SM OVC100
     FM220700 19003KT P6SM VCSH OVC060
     FM221600 21005KT P6SM BKN040=

USA.gov is the U.S. government's official web portal to all federal, state and local government web resources and services.